User: anonymous   Login
Location: Sun City Center
(27.6996°N, 82.3528°W)
Time: 13:34:48
(UTC-04:00)
Language:

Cosmos 2084 Rocket - Orbit

View from above orbital plane
View from above orbital plane
View from above satellite
View from above satellite

Ground track
Ground track

The orbit data is extracted from the following two-line orbital elements,

1 20666U 90055D   16144.83029196  .00000578  00000-0  66562-4 0  9992
2 20666  62.7851   7.1670 0132306  70.8942 290.6423 14.91575041403096
Epoch (UTC): 23 May 2016 19:55:37
Eccentricity: 0.0132306
inclination: 62.7851°
perigee height: 501 km
apogee height: 685 km
right ascension of ascending node: 7.1670°
argument of perigee: 70.8942°
revolutions per day: 14.91575041
mean anomaly at epoch: 290.6423°
orbit number at epoch: 40309

The dashed part of the orbit path shows where the satellite is in the earth's shadow,  

DLR